{"data":{"norad_id":68168,"epoch":"2026-09-19T22:27:26.229600Z","epoch_age_seconds":104559,"freshness":"FRESH","line1":"1 68168U 26050B   26262.93572025  .00018295  00000+0  55118-3 0  9990","line2":"2 68168  53.1580  80.2202 0001565  85.4859 274.6322 15.34405052 30483","mean_motion":15.34405052,"eccentricity":0.0001565,"inclination_deg":53.158,"raan_deg":80.2202,"arg_perigee_deg":85.4859,"mean_anomaly_deg":274.6322,"bstar":0.00055118,"rev_number":3048,"period_min":93.847449089343,"perigee_km":461.61763549199,"apogee_km":463.7588137873,"semimajor_km":6840.8252246396,"source":"CELESTRAK","updated_at":"2026-09-20T09:00:43.798188Z"}}